Location: Terra Rouge Observatory
(46.0000°N, 62.7500°W)
Time: 10:30:41
(UTC-04:00)

Amateur Radio Satellites - All Passes

Search period start: 28 November 2014 10:00
Search period end: 29 November 2014 10:00
Location: Terra Rouge Observatory, 46.0000°N, 62.7500°W

Satellite Date Start Highest point End Downlink Frequencies (MHz)
Time Altitude Azimuth
CUTE 1.7 + AOD 2 28 Nov 10:12:07 10:15:49 29° 293° (WNW) 10:19:31 437.475
GONETS M04 28 Nov 10:13:41 10:20:44 26° 299° (WNW) 10:27:51
BRITE-PL 28 Nov 10:17:39 10:21:07 26° 293° (WNW) 10:24:36 437.365/2234.400
ZACube-1 28 Nov 10:20:15 10:24:27 57° 100° (E) 10:28:42 437.345
DOVE 4 28 Nov 10:20:31 10:24:28 42° 289° (WNW) 10:28:32 437.250
POPSAT HIP 1 28 Nov 10:21:54 10:26:09 75° 257° (WSW) 10:30:25 437.405
TIGRISAT 28 Nov 10:24:06 10:28:13 50° 260° (W) 10:32:24 435.000
VELOX 1 28 Nov 10:30:22 10:34:37 44° 99° (E) 10:38:49 145.980
CINEMA 3 28 Nov 10:37:59 10:42:01 45° 289° (WNW) 10:46:10 145.822/145.860
ESTCUBE 1 28 Nov 10:38:20 10:41:55 23° 93° (E) 10:45:28 437.505/2401.250
HO-68 28 Nov 10:38:53 10:45:22 38° 299° (WNW) 10:51:49 435.675
UNISAT 6 28 Nov 10:39:30 10:43:24 34° 263° (W) 10:47:20 437.425
SEEDS 28 Nov 10:42:38 10:45:28 18° 297° (WNW) 10:48:17 437.485
DELFI C3 28 Nov 10:46:02 10:49:55 39° 290° (WNW) 10:53:46 145.870
UKube-1 28 Nov 10:47:47 10:51:54 42° 291° (WNW) 10:55:58 .
50 SAT 28 Nov 10:52:28 10:56:31 64° 101° (ESE) 11:00:35 437.505
AAUSAT CUBESAT 2 28 Nov 10:54:26 10:57:11 17° 297° (WNW) 10:59:55 437.432
FUNcube-1 28 Nov 10:54:38 10:58:50 63° 286° (WNW) 11:03:07 145.935
Oscar 11 28 Nov 10:57:28 11:01:14 29° 293° (WNW) 11:04:58 145.826/435.025
POLYITAN 1 28 Nov 10:57:40 11:01:28 31° 264° (W) 11:05:16 437.675
AISAT 28 Nov 10:58:06 11:02:34 87° 104° (ESE) 11:06:59 437.250
QB50P2 28 Nov 10:58:41 11:02:27 30° 264° (W) 11:06:14 145.880/145.840
CUBEBUG 1 28 Nov 11:01:48 11:05:50 35° 97° (E) 11:09:49 437.445
DUCHIFAT 1 28 Nov 11:03:09 11:06:50 28° 264° (W) 11:10:31 145.980
ANTELSAT 28 Nov 11:09:49 11:12:44 18° 268° (W) 11:15:41 437.575/2403.000
COMPASS 1 28 Nov 11:12:59 11:14:02 11° 302° (WNW) 11:15:04 437.405
Oscar 19 28 Nov 11:15:09 11:17:59 15° 57° (ENE) 11:20:49 437.125/150
GOMX 1 28 Nov 11:16:46 11:17:34 11° 301° (WNW) 11:18:22 467.674
HUMSAT D 28 Nov 11:20:47 11:24:51 52° 288° (WNW) 11:28:57 437.325/437.525
SO-50 28 Nov 11:21:43 11:26:34 64° 50° (NE) 11:31:26 436.795
NANOSAT C BR1 28 Nov 11:23:58 11:26:53 18° 268° (W) 11:29:48 145.865
DX 1 28 Nov 11:26:46 11:29:47 19° 298° (WNW) 11:32:49 434.975-435.025
UWE-3 28 Nov 11:27:42 11:31:14 26° 293° (WNW) 11:34:50 435.000/436.395/437.385
BUGSAT 1 28 Nov 11:31:29 11:34:22 18° 268° (W) 11:37:14 437.445
CUBEBUG 2 28 Nov 11:33:05 11:36:16 21° 295° (WNW) 11:39:30 437.445
QB50P1 28 Nov 11:35:00 11:37:16 14° 270° (W) 11:39:32 145.935-145.965
TISAT 1 28 Nov 11:57:39 12:01:34 36° 98° (E) 12:05:26 437.305
ZACube-1 28 Nov 11:57:49 12:00:26 16° 298° (WNW) 12:03:05 437.345
VELOX 1 28 Nov 12:07:36 12:10:56 21° 297° (WNW) 12:14:16 145.980
ITAMSAT 1 28 Nov 12:12:51 12:16:35 20° 60° (ENE) 12:20:19 435.822/435.867
ESTCUBE 1 28 Nov 12:14:41 12:18:58 41° 291° (WNW) 12:23:12 437.505/2401.250
SPROUT 28 Nov 12:15:21 12:19:32 50° 100° (E) 12:23:42 437.525
ITUPSAT 1 28 Nov 12:21:17 12:22:27 11° 87° (E) 12:23:36 437.325
50 SAT 28 Nov 12:29:19 12:31:21 14° 299° (WNW) 12:33:23 437.505
SWISSCUBE 28 Nov 12:29:50 12:32:34 15° 89° (E) 12:35:18 437.505
YUBILEINY 28 Nov 12:30:52 12:39:02 42° 70° (ENE) 12:47:06 435.215
AO-7 28 Nov 12:34:14 12:37:30 13° 36° (NE) 12:40:45 29.400- 29.500
AISAT 28 Nov 12:36:49 12:38:32 12° 302° (WNW) 12:40:15 437.250
CUBEBUG 1 28 Nov 12:38:30 12:42:04 25° 295° (WNW) 12:45:35 437.445
CUSAT 1 28 Nov 12:41:05 12:43:39 56° 98° (E) 12:46:17 437.405
Oscar 19 28 Nov 12:51:30 12:56:37 87° 256° (WSW) 13:01:47 437.125/150
Gurwin Techsat 1B 28 Nov 12:59:09 13:03:40 29° 64° (ENE) 13:08:13 435.225
BEESAT 28 Nov 12:59:21 13:03:24 27° 94° (E) 13:07:25 436.000
SO-50 28 Nov 13:03:09 13:06:43 20° 248° (WSW) 13:10:16 436.795
HORYU 2 28 Nov 13:05:29 13:07:33 13° 58° (ENE) 13:09:37 437.375
AUBIESAT-1 28 Nov 13:17:39 13:22:13 37° 102° (ESE) 13:26:39 437.475
DANDE 28 Nov 13:18:44 13:21:15 40° 284° (WNW) 13:23:47 436.750
M-CUBED/EXP-1 PRIME 28 Nov 13:24:38 13:29:26 47° 104° (ESE) 13:34:04 437.505
TISAT 1 28 Nov 13:33:54 13:37:14 23° 295° (WNW) 13:40:32 437.305
MaSat-1 28 Nov 13:45:45 13:46:19 10° 109° (ESE) 13:46:52 437.345
ITAMSAT 1 28 Nov 13:50:25 13:55:36 64° 258° (WSW) 14:00:48 435.822/435.867
SPROUT 28 Nov 13:52:23 13:55:16 18° 297° (WNW) 13:58:10 437.525
ITUPSAT 1 28 Nov 13:56:12 14:01:03 89° 105° (ESE) 14:05:51 437.325
RS-15 28 Nov 13:59:44 14:06:40 20° 98° (E) 14:13:33 29.354- 29.394
VERMONT LUNAR 28 Nov 14:02:26 14:05:16 22° 162° (SSE) 14:08:07 437.305
PHONESAT 2.4 28 Nov 14:02:32 14:05:11 19° 158° (SSE) 14:07:50 2401.200-2431.200
JAS-2 28 Nov 14:05:17 14:08:19 13° 45° (NE) 14:11:20 435.910
O/OREOS (USA 219) 28 Nov 14:05:58 14:09:38 24° 53° (NE) 14:13:17 437.305
SWISSCUBE 28 Nov 14:06:09 14:10:56 69° 287° (WNW) 14:15:41 437.505
KKS-1 28 Nov 14:20:14 14:24:21 36° 97° (E) 14:28:26 437.445
AO-7 28 Nov 14:20:28 14:28:10 45° 59° (ENE) 14:35:55 29.400- 29.500
YUBILEINY 28 Nov 14:27:45 14:35:59 49° 272° (W) 14:44:10 435.215
Oscar 19 28 Nov 14:35:05 14:36:44 11° 273° (W) 14:38:23 437.125/150
BEESAT 28 Nov 14:36:54 14:41:21 39° 292° (WNW) 14:45:46 436.000
Gurwin Techsat 1B 28 Nov 14:38:27 14:43:28 43° 262° (W) 14:48:32 435.225
HORYU 2 28 Nov 14:39:11 14:43:36 80° 256° (WSW) 14:48:05 437.375
AUBIESAT-1 28 Nov 14:52:44 14:57:05 32° 300° (WNW) 15:01:20 437.475
M-CUBED/EXP-1 PRIME 28 Nov 15:00:06 15:04:11 27° 302° (WNW) 15:08:13 437.505
STARS 28 Nov 15:10:10 15:14:35 81° 104° (ESE) 15:18:59 437.465
MaSat-1 28 Nov 15:17:56 15:20:31 33° 302° (WNW) 15:22:56 437.345
ITUPSAT 1 28 Nov 15:35:56 15:38:14 14° 303° (WNW) 15:40:33 437.325
VERMONT LUNAR 28 Nov 15:39:56 15:43:15 34° 179° (S) 15:46:34 437.305
PHONESAT 2.4 28 Nov 15:40:02 15:43:25 34° 175° (S) 15:46:49 2401.200-2431.200
JAS-2 28 Nov 15:44:12 15:51:34 49° 66° (ENE) 15:58:58 435.910
O/OREOS (USA 219) 28 Nov 15:44:59 15:49:12 42° 252° (WSW) 15:53:26 437.305
SWISSCUBE 28 Nov 15:47:26 15:47:54 10° 306° (NW) 15:48:21 437.505
CUTE-I 28 Nov 15:54:32 15:57:16 14° 55° (NE) 16:00:01 437.470
KKS-1 28 Nov 15:57:12 16:00:51 26° 295° (WNW) 16:04:29 437.445
RS-15 28 Nov 16:06:08 16:17:02 77° 121° (ESE) 16:27:59 29.354- 29.394
AO-7 28 Nov 16:12:57 16:20:54 49° 259° (W) 16:28:55 29.400- 29.500
GONETS M04 28 Nov 16:28:42 16:30:10 10° 45° (NE) 16:31:37
STARS 28 Nov 16:48:31 16:50:28 13° 302° (WNW) 16:52:24 437.465
Cubesat XI-IV 28 Nov 16:51:04 16:56:02 40° 67° (ENE) 17:01:00 437.490
VERMONT LUNAR 28 Nov 17:18:14 17:21:15 25° 196° (SSW) 17:24:16 437.305
PHONESAT 2.4 28 Nov 17:18:31 17:21:47 29° 192° (SSW) 17:25:02 2401.200-2431.200
MOZHAYETS 4 28 Nov 17:20:41 17:25:23 84° 103° (ESE) 17:30:02
JAS-2 28 Nov 17:29:19 17:36:35 43° 265° (W) 17:44:00 435.910
CUTE-I 28 Nov 17:31:10 17:36:32 83° 74° (ENE) 17:41:55 437.470
PRISM 28 Nov 17:32:43 17:35:56 21° 93° (E) 17:39:08 437.425
HO-68 28 Nov 17:40:21 17:42:38 12° 42° (NE) 17:44:54 435.675
RS-15 28 Nov 18:20:13 18:30:24 42° 328° (NNW) 18:40:47 29.354- 29.394
GONETS M04 28 Nov 18:21:26 18:29:53 46° 71° (ENE) 18:38:13
Cubesat XI-IV 28 Nov 18:31:29 18:36:12 31° 265° (W) 18:40:57 437.490
AIST 1 28 Nov 18:48:15 18:52:05 30° 90° (E) 18:55:58
PCSat 28 Nov 18:53:42 18:58:50 46° 115° (ESE) 19:04:01 145.827
COMPASS 1 28 Nov 18:57:29 18:57:55 10° 58° (ENE) 18:58:22 437.405
PHONESAT 2.4 28 Nov 18:58:16 18:59:53 12° 208° (SSW) 19:01:29 2401.200-2431.200
CANX-2 28 Nov 18:59:02 19:01:33 16° 62° (ENE) 19:04:05 2200.000
MOZHAYETS 4 28 Nov 18:59:42 19:01:57 14° 301° (WNW) 19:04:11
AIST 2 28 Nov 19:02:53 19:04:56 13° 109° (ESE) 19:07:01 435.215
PRISM 28 Nov 19:07:41 19:11:39 40° 291° (WNW) 19:15:35 437.425
CUBESAT XI-V 28 Nov 19:10:12 19:14:55 86° 104° (ESE) 19:19:33 437.345
GOMX 1 28 Nov 19:10:53 19:13:27 15° 62° (ENE) 19:15:58 467.674
STRAND 1 28 Nov 19:11:39 19:16:48 76° 104° (ESE) 19:21:53 437.568
CUTE-I 28 Nov 19:14:28 19:17:16 14° 272° (W) 19:20:06 437.470
HO-68 28 Nov 19:21:51 19:28:39 48° 64° (ENE) 19:35:29 435.675
CUTE 1.7 + AOD 2 28 Nov 19:31:55 19:35:34 29° 68° (ENE) 19:39:16 437.475
BEESAT 3 28 Nov 19:33:22 19:37:23 55° 121° (ESE) 19:41:28 437.485
BEESAT 2 28 Nov 19:51:09 19:55:16 75° 124° (ESE) 19:59:28 435.950
DOVE 4 28 Nov 19:51:50 19:55:35 27° 67° (ENE) 19:59:11 437.250
BRITE-PL 28 Nov 19:52:00 19:56:40 49° 72° (ENE) 20:01:00 437.365/2234.400
SEEDS 28 Nov 20:00:41 20:04:44 50° 72° (ENE) 20:08:50 437.485
DELFI C3 28 Nov 20:03:09 20:06:02 19° 64° (ENE) 20:08:56 145.870
CINEMA 3 28 Nov 20:06:21 20:09:44 23° 66° (ENE) 20:13:04 145.822/145.860
UKube-1 28 Nov 20:09:55 20:13:30 25° 65° (ENE) 20:17:05 .
AAUSAT CUBESAT 2 28 Nov 20:11:32 20:15:33 50° 72° (ENE) 20:19:37 437.432
GONETS M04 28 Nov 20:18:29 20:26:40 45° 273° (W) 20:34:47
Oscar 11 28 Nov 20:18:38 20:22:28 32° 68° (ENE) 20:26:20 145.826/435.025
FUNcube-1 28 Nov 20:19:03 20:21:28 15° 62° (ENE) 20:23:54 145.935
AISAT 28 Nov 20:24:51 20:27:07 14° 59° (ENE) 20:29:22 437.250
AIST 1 28 Nov 20:25:58 20:29:45 27° 288° (WNW) 20:33:33
COMPASS 1 28 Nov 20:28:46 20:32:57 87° 77° (ENE) 20:37:10 437.405
CANX-2 28 Nov 20:32:54 20:37:03 58° 260° (W) 20:41:16 2200.000
RS-15 28 Nov 20:37:23 20:46:34 29° 2° (N) 20:55:58 29.354- 29.394
PCSat 28 Nov 20:37:32 20:42:25 33° 315° (NW) 20:47:20 145.827
AIST 2 28 Nov 20:38:44 20:42:59 76° 307° (NW) 20:47:18 435.215
HUMSAT D 28 Nov 20:41:37 20:44:11 16° 62° (ENE) 20:46:44 437.325/437.525
GOMX 1 28 Nov 20:46:33 20:51:11 66° 258° (WSW) 20:55:33 467.674
DX 1 28 Nov 20:47:37 20:51:56 61° 72° (ENE) 20:56:16 434.975-435.025
CUBESAT XI-V 28 Nov 20:49:31 20:51:40 13° 302° (WNW) 20:53:48 437.345
UWE-3 28 Nov 20:51:03 20:54:54 36° 69° (ENE) 20:58:43 435.000/436.395/437.385
STRAND 1 28 Nov 20:52:11 20:55:23 17° 302° (WNW) 20:58:34 437.568
CUBEBUG 2 28 Nov 20:56:53 21:00:56 47° 72° (ENE) 21:04:57 437.445
CUTE 1.7 + AOD 2 28 Nov 21:07:52 21:11:29 28° 265° (W) 21:15:09 437.475
HO-68 28 Nov 21:09:54 21:16:29 38° 263° (W) 21:23:07 435.675
BEESAT 3 28 Nov 21:12:37 21:15:55 22° 321° (NW) 21:19:15 437.485
ZACube-1 28 Nov 21:19:03 21:23:11 61° 74° (ENE) 21:27:18 437.345
DOVE 4 28 Nov 21:29:16 21:33:18 32° 263° (W) 21:37:11 437.250
VELOX 1 28 Nov 21:30:37 21:34:59 55° 72° (ENE) 21:39:22 145.980
BEESAT 2 28 Nov 21:31:04 21:34:03 19° 324° (NW) 21:37:04 435.950
BRITE-PL 28 Nov 21:31:56 21:35:24 19° 267° (W) 21:38:43 437.365/2234.400
DELFI C3 28 Nov 21:37:10 21:41:03 43° 262° (W) 21:44:59 145.870
SEEDS 28 Nov 21:38:17 21:40:54 16° 269° (W) 21:43:32 437.485
ESTCUBE 1 28 Nov 21:40:34 21:44:29 29° 66° (ENE) 21:48:25 437.505/2401.250
CINEMA 3 28 Nov 21:42:50 21:46:49 36° 263° (W) 21:50:42 145.822/145.860
50 SAT 28 Nov 21:43:46 21:47:43 57° 73° (ENE) 21:51:41 437.505
UKube-1 28 Nov 21:45:32 21:49:32 35° 262° (W) 21:53:33 .
AAUSAT CUBESAT 2 28 Nov 21:48:57 21:51:33 16° 269° (W) 21:54:10 437.432
FUNcube-1 28 Nov 21:53:18 21:57:25 57° 260° (W) 22:01:32 145.935
Oscar 11 28 Nov 21:55:04 21:58:41 26° 266° (W) 22:02:19 145.826/435.025
AISAT 28 Nov 21:58:42 22:03:10 77° 257° (WSW) 22:07:40 437.250
CUBEBUG 1 28 Nov 22:00:29 22:04:40 42° 70° (ENE) 22:08:51 437.445
POPSAT HIP 1 28 Nov 22:06:27 22:08:54 15° 91° (E) 22:11:21 437.405
ISS 28 Nov 22:06:46 22:09:23 22° 138° (SE) 22:12:01 145.825
DANDE 28 Nov 22:12:04 22:15:09 17° 70° (ENE) 22:18:46 436.750
TIGRISAT 28 Nov 22:13:29 22:17:16 27° 95° (E) 22:21:06 435.000
HUMSAT D 28 Nov 22:15:35 22:19:37 52° 260° (W) 22:23:39 437.325/437.525
AIST 2 28 Nov 22:19:47 22:22:22 15° 328° (NNW) 22:24:58 435.215
DX 1 28 Nov 22:26:09 22:28:35 15° 270° (W) 22:31:02 434.975-435.025
PCSat 28 Nov 22:26:22 22:27:36 11° 339° (NNW) 22:28:50 145.827
UWE-3 28 Nov 22:28:19 22:31:34 22° 267° (W) 22:34:49 435.000/436.395/437.385
UNISAT 6 28 Nov 22:28:36 22:32:48 38° 98° (E) 22:37:03 437.425
CUBEBUG 2 28 Nov 22:35:12 22:37:55 17° 269° (W) 22:40:38 437.445
AUBIESAT-1 28 Nov 22:38:28 22:39:26 11° 48° (NE) 22:40:24 437.475
POLYITAN 1 28 Nov 22:40:50 22:44:43 34° 97° (E) 22:48:35 437.675
QB50P2 28 Nov 22:41:35 22:45:29 35° 97° (E) 22:49:22 145.880/145.840
M-CUBED/EXP-1 PRIME 28 Nov 22:44:41 22:46:43 13° 50° (NE) 22:48:49 437.505
DUCHIFAT 1 28 Nov 22:45:32 22:49:29 37° 98° (E) 22:53:24 145.980
RS-15 28 Nov 22:51:57 23:02:33 46° 35° (NE) 23:13:31 29.354- 29.394
TISAT 1 28 Nov 22:52:45 22:56:43 39° 70° (ENE) 23:00:41 437.305
ANTELSAT 28 Nov 22:57:34 23:02:03 76° 103° (ESE) 23:06:37 437.575/2403.000
ZACube-1 28 Nov 22:58:01 22:59:59 13° 271° (W) 23:01:56 437.345
NANOSAT C BR1 28 Nov 23:05:20 23:09:32 62° 101° (ESE) 23:13:43 145.865
VELOX 1 28 Nov 23:09:03 23:11:55 17° 269° (W) 23:14:48 145.980
BUGSAT 1 28 Nov 23:10:12 23:14:14 57° 101° (E) 23:18:12 437.445
SPROUT 28 Nov 23:12:00 23:16:12 54° 72° (ENE) 23:20:25 437.525
CUSAT 1 28 Nov 23:14:21 23:19:06 67° 78° (ENE) 23:25:31 437.405
QB50P1 28 Nov 23:15:40 23:19:55 81° 104° (ESE) 23:24:08 145.935-145.965
ESTCUBE 1 28 Nov 23:17:11 23:21:17 33° 264° (W) 23:25:25 437.505/2401.250
MaSat-1 28 Nov 23:18:58 23:21:07 32° 58° (ENE) 23:23:18 437.345
50 SAT 28 Nov 23:21:29 23:23:24 13° 270° (W) 23:25:20 437.505
ITUPSAT 1 28 Nov 23:29:38 23:32:57 19° 60° (ENE) 23:36:16 437.325
CUBEBUG 1 28 Nov 23:37:49 23:41:13 21° 267° (W) 23:44:38 437.445
SWISSCUBE 28 Nov 23:38:41 23:42:31 24° 63° (ENE) 23:46:22 437.505
POPSAT HIP 1 28 Nov 23:41:02 23:45:10 55° 288° (WNW) 23:49:17 437.405
ISS 28 Nov 23:42:31 23:45:47 65° 336° (NNW) 23:49:04 145.825
TIGRISAT 28 Nov 23:50:03 23:54:04 34° 292° (WNW) 23:58:09 435.000
DANDE 28 Nov 23:54:06 23:58:43 68° 261° (W) 00:05:00 436.750
UNISAT 6 29 Nov 00:05:48 00:09:25 25° 295° (WNW) 00:13:06 437.425
BEESAT 29 Nov 00:08:16 00:12:44 40° 68° (ENE) 00:17:14 436.000
AUBIESAT-1 29 Nov 00:09:15 00:13:27 67° 68° (ENE) 00:18:03 437.475
M-CUBED/EXP-1 PRIME 29 Nov 00:16:44 00:20:57 86° 71° (ENE) 00:25:35 437.505
POLYITAN 1 29 Nov 00:17:06 00:20:32 24° 294° (WNW) 00:23:57 437.675
QB50P2 29 Nov 00:17:51 00:21:16 24° 295° (WNW) 00:24:40 145.880/145.840
DUCHIFAT 1 29 Nov 00:21:53 00:25:10 22° 295° (WNW) 00:28:26 145.980
TISAT 1 29 Nov 00:29:26 00:32:42 21° 267° (W) 00:35:58 437.305
ANTELSAT 29 Nov 00:36:01 00:38:19 14° 300° (WNW) 00:40:39 437.575/2403.000
STARS 29 Nov 00:36:30 00:38:18 12° 58° (ENE) 00:40:06 437.465
NANOSAT C BR1 29 Nov 00:42:35 00:44:57 15° 299° (WNW) 00:47:19 145.865
BUGSAT 1 29 Nov 00:46:59 00:49:18 15° 299° (WNW) 00:51:36 437.445
SPROUT 29 Nov 00:49:59 00:52:38 16° 269° (W) 00:55:17 437.525
QB50P1 29 Nov 00:53:37 00:55:12 12° 301° (WNW) 00:56:47 145.935-145.965
CUSAT 1 29 Nov 00:58:41 01:02:07 18° 269° (W) 01:06:08 437.405
Oscar 19 29 Nov 01:00:58 01:05:23 28° 94° (E) 01:09:47 437.125/150
RS-15 29 Nov 01:04:36 01:15:42 71° 241° (WSW) 01:27:17 29.354- 29.394
ITUPSAT 1 29 Nov 01:05:37 01:10:23 61° 259° (WSW) 01:15:11 437.325
SWISSCUBE 29 Nov 01:15:32 01:20:08 45° 261° (W) 01:24:46 437.505
ISS 29 Nov 01:19:52 01:22:49 30° 356° (N) 01:25:46 145.825
KKS-1 29 Nov 01:20:56 01:25:10 45° 70° (ENE) 01:29:25 437.445
YUBILEINY 29 Nov 01:35:00 01:43:06 43° 87° (E) 01:51:10 435.215
AUBIESAT-1 29 Nov 01:46:44 01:49:01 14° 267° (W) 01:51:24 437.475
BEESAT 29 Nov 01:46:45 01:50:43 25° 266° (W) 01:54:42 436.000
M-CUBED/EXP-1 PRIME 29 Nov 01:55:47 01:56:45 11° 269° (W) 01:57:45 437.505
PCSat 29 Nov 01:56:28 01:59:52 17° 32° (NNE) 02:03:15 145.827
ITAMSAT 1 29 Nov 02:00:57 02:05:45 37° 97° (E) 02:10:31 435.822/435.867
STARS 29 Nov 02:09:45 02:14:09 84° 256° (WSW) 02:18:35 437.465
BEESAT 3 29 Nov 02:13:51 02:16:21 15° 33° (NNE) 02:18:50 437.485
HORYU 2 29 Nov 02:29:26 02:32:22 17° 91° (E) 02:35:18 437.375
BEESAT 2 29 Nov 02:31:45 02:34:43 18° 36° (NE) 02:37:40 435.950
Oscar 19 29 Nov 02:40:00 02:44:51 42° 292° (WNW) 02:49:42 437.125/150
MOZHAYETS 4 29 Nov 02:50:42 02:53:04 14° 59° (ENE) 02:55:26
Gurwin Techsat 1B 29 Nov 02:51:42 02:57:00 64° 102° (ESE) 03:02:15 435.225
ISS 29 Nov 02:56:50 02:59:59 40° 16° (NNE) 03:03:07 145.825
KKS-1 29 Nov 02:58:46 03:02:03 20° 267° (W) 03:05:20 437.445
SO-50 29 Nov 03:18:55 03:23:26 78° 125° (SE) 03:28:08 436.795
RS-15 29 Nov 03:19:26 03:25:59 18° 263° (W) 03:32:42 29.354- 29.394
AIST 2 29 Nov 03:20:30 03:24:05 24° 40° (NE) 03:27:37 435.215
YUBILEINY 29 Nov 03:31:26 03:39:49 48° 288° (WNW) 03:48:14 435.215
PCSat 29 Nov 03:38:57 03:44:22 65° 54° (NE) 03:49:45 145.827
ITAMSAT 1 29 Nov 03:40:37 03:45:09 32° 295° (WNW) 03:49:40 435.822/435.867
BEESAT 3 29 Nov 03:51:04 03:55:17 77° 53° (NE) 03:59:27 437.485
HORYU 2 29 Nov 04:04:59 04:09:23 55° 289° (WNW) 04:13:46 437.375
BEESAT 2 29 Nov 04:09:18 04:13:32 80° 236° (SW) 04:17:42 435.950
AO-7 29 Nov 04:11:06 04:19:14 52° 101° (ESE) 04:27:19 29.400- 29.500
O/OREOS (USA 219) 29 Nov 04:22:13 04:24:52 16° 100° (E) 04:27:30 437.305
MOZHAYETS 4 29 Nov 04:25:03 04:29:40 80° 257° (WSW) 04:34:20
PRISM 29 Nov 04:26:12 04:29:31 23° 64° (ENE) 04:32:52 437.425
Gurwin Techsat 1B 29 Nov 04:32:38 04:36:29 21° 300° (WNW) 04:40:20 435.225
ISS 29 Nov 04:33:29 04:36:41 49° 215° (SW) 04:39:53 145.825
JAS-2 29 Nov 04:37:20 04:43:24 31° 91° (E) 04:48:50 435.910
CUBESAT XI-V 29 Nov 04:41:10 04:43:50 15° 60° (ENE) 04:46:30 437.345
STRAND 1 29 Nov 04:52:40 04:56:28 21° 61° (ENE) 05:00:17 437.568
AIST 1 29 Nov 04:54:54 04:56:02 11° 63° (ENE) 04:57:10
AIST 2 29 Nov 04:58:47 05:02:59 52° 239° (WSW) 05:07:07 435.215
SO-50 29 Nov 05:01:02 05:04:33 21° 325° (NW) 05:08:10 436.795
Cubesat XI-IV 29 Nov 05:07:49 05:09:53 12° 87° (E) 05:11:56 437.490
PCSat 29 Nov 05:23:18 05:27:17 21° 253° (WSW) 05:31:16 145.827
BEESAT 3 29 Nov 05:31:05 05:32:55 13° 251° (WSW) 05:34:44 437.485
YUBILEINY 29 Nov 05:37:39 05:39:25 11° 314° (NW) 05:41:11 435.215
CUTE-I 29 Nov 05:46:22 05:50:51 27° 94° (E) 05:55:18 437.470
O/OREOS (USA 219) 29 Nov 05:59:20 06:03:46 60° 298° (WNW) 06:08:12 437.305
PRISM 29 Nov 06:00:57 06:04:53 37° 262° (W) 06:08:51 437.425
AO-7 29 Nov 06:04:11 06:11:53 43° 302° (WNW) 06:19:34 29.400- 29.500
CUBESAT XI-V 29 Nov 06:15:58 06:20:41 76° 257° (WSW) 06:25:26 437.345
JAS-2 29 Nov 06:21:59 06:28:49 52° 293° (WNW) 06:34:50 435.910
AIST 1 29 Nov 06:29:59 06:34:23 84° 262° (W) 06:38:43
STRAND 1 29 Nov 06:30:10 06:35:15 59° 259° (WSW) 06:40:21 437.568
Cubesat XI-IV 29 Nov 06:45:23 06:50:45 87° 105° (ESE) 06:56:04 437.490
GONETS M04 29 Nov 07:25:27 07:33:44 48° 88° (E) 07:42:05
CUTE-I 29 Nov 07:26:03 07:31:06 45° 292° (WNW) 07:36:07 437.470
BRITE-PL 29 Nov 07:56:53 07:57:29 10° 88° (E) 07:58:05 437.365/2234.400
AO-7 29 Nov 07:59:30 08:02:29 12° 325° (NW) 08:05:28 29.400- 29.500
JAS-2 29 Nov 08:09:41 08:12:06 12° 315° (NW) 08:14:27 435.910
COMPASS 1 29 Nov 08:12:20 08:14:07 12° 89° (E) 08:15:54 437.405
CANX-2 29 Nov 08:16:42 08:19:56 20° 92° (E) 08:23:10 2200.000
ANTELSAT 29 Nov 08:26:33 08:27:38 11° 58° (ENE) 08:28:44 437.575/2403.000
Cubesat XI-IV 29 Nov 08:27:02 08:30:08 16° 304° (WNW) 08:33:14 437.490
HO-68 29 Nov 08:34:10 08:40:48 38° 97° (E) 08:47:21 435.675
QB50P1 29 Nov 08:39:36 08:40:04 10° 57° (ENE) 08:40:32 145.935-145.965
GOMX 1 29 Nov 08:46:04 08:49:36 26° 95° (E) 08:53:13 467.674
CUTE 1.7 + AOD 2 29 Nov 08:50:16 08:54:22 41° 98° (E) 08:58:26 437.475
POPSAT HIP 1 29 Nov 09:02:19 09:05:06 17° 62° (ENE) 09:07:54 437.405
TIGRISAT 29 Nov 09:15:13 09:18:57 31° 68° (ENE) 09:22:43 435.000
DELFI C3 29 Nov 09:15:59 09:19:16 22° 93° (E) 09:22:32 145.870
SEEDS 29 Nov 09:18:37 09:22:55 73° 102° (ESE) 09:27:11 437.485
GONETS M04 29 Nov 09:22:23 09:30:40 43° 290° (WNW) 09:39:02
DOVE 4 29 Nov 09:25:09 09:29:14 50° 100° (E) 09:33:28 437.250
AAUSAT CUBESAT 2 29 Nov 09:28:12 09:32:27 69° 102° (ESE) 09:36:41 437.432
UNISAT 6 29 Nov 09:30:32 09:34:35 45° 71° (ENE) 09:38:41 437.425
UKube-1 29 Nov 09:30:53 09:34:46 31° 97° (E) 09:38:37 .
BRITE-PL 29 Nov 09:32:25 09:36:34 74° 285° (WNW) 09:40:47 437.365/2234.400
CINEMA 3 29 Nov 09:34:45 09:38:45 39° 98° (E) 09:42:53 145.822/145.860
POLYITAN 1 29 Nov 09:36:45 09:40:40 37° 69° (ENE) 09:44:35 437.675
QB50P2 29 Nov 09:37:17 09:41:13 37° 69° (ENE) 09:45:09 145.880/145.840
Oscar 11 29 Nov 09:39:14 09:43:26 46° 99° (E) 09:47:38 145.826/435.025
FUNcube-1 29 Nov 09:39:56 09:43:15 22° 93° (E) 09:46:36 145.935
DUCHIFAT 1 29 Nov 09:40:52 09:44:50 40° 70° (ENE) 09:48:48 145.980
COMPASS 1 29 Nov 09:46:05 09:50:19 68° 286° (WNW) 09:54:33 437.405
AISAT 29 Nov 09:48:39 09:51:35 17° 91° (E) 09:54:30 437.250
CANX-2 29 Nov 09:52:01 09:56:04 41° 290° (WNW) 10:00:06 2200.000
